Time,TemperatureF,DewpointF,PressureIn,WindDirection,WindDirectionDegrees,WindSpeedMPH,WindSpeedGustMPH,Humidity,HourlyPrecipIn,Conditions,Clouds,dailyrainin,SoftwareType,DateUTC
2013-05-09 00:01:00,70.3,62.7,30.17,SSW,213,0.0,0.0,77,0.00,CLR,OVC,0.00,WeatherDisplay:10.37,2013-05-09 04:01:00,
2013-05-09 00:06:00,70.0,62.5,30.17,SSW,213,0.0,0.0,77,0.00,CLR,OVC,0.00,WeatherDisplay:10.37,2013-05-09 04:06:00,
2013-05-09 00:11:00,69.7,62.5,30.17,SSW,213,0.0,0.0,78,0.00,CLR,OVC,0.00,WeatherDisplay:10.37,2013-05-09 04:11:00,
2013-05-09 00:16:00,69.8,62.6,30.17,SSW,213,0.0,0.0,78,0.00,CLR,OVC,0.00,WeatherDisplay:10.37,2013-05-09 04:16:00,
2013-05-09 00:21:00,69.7,62.5,30.17,SSW,213,0.0,0.0,78,0.00,CLR,OVC,0.00,WeatherDisplay:10.37,2013-05-09 04:21:00,
2013-05-09 00:26:00,69.4,62.6,30.17,SSW,213,0.0,0.0,79,0.00,CLR,OVC,0.00,WeatherDisplay:10.37,2013-05-09 04:26:00,
2013-05-09 00:31:00,69.3,62.9,30.17,SSW,213,0.0,0.0,80,0.00,CLR,OVC,0.00,WeatherDisplay:10.37,2013-05-09 04:31:00,
2013-05-09 00:36:00,69.2,62.8,30.17,SSW,213,0.0,0.0,80,0.00,CLR,OVC,0.00,WeatherDisplay:10.37,2013-05-09 04:36:00,
2013-05-09 00:41:00,69.1,62.7,30.17,SSW,213,0.0,0.0,80,0.00,CLR,OVC,0.00,WeatherDisplay:10.37,2013-05-09 04:41:00,
2013-05-09 00:46:00,69.0,62.6,30.17,SSW,213,0.0,0.0,80,0.00,CLR,OVC,0.00,WeatherDisplay:10.37,2013-05-09 04:46:00,
2013-05-09 00:51:00,68.9,62.5,30.17,SSW,213,0.0,0.0,80,0.00,CLR,OVC,0.00,WeatherDisplay:10.37,2013-05-09 04:51:00,
2013-05-09 00:56:00,68.8,62.7,30.16,SSW,213,0.0,0.0,81,0.00,CLR,OVC,0.00,WeatherDisplay:10.37,2013-05-09 04:56:00,
2013-05-09 01:01:00,68.9,62.8,30.16,SSW,213,0.0,0.0,81,0.00,CLR,OVC,0.00,WeatherDisplay:10.37,2013-05-09 05:01:00,
2013-05-09 01:06:00,68.9,62.8,30.16,SSW,213,0.0,0.0,81,0.00,CLR,OVC,0.00,WeatherDisplay:10.37,2013-05-09 05:06:00,
2013-05-09 01:11:00,68.7,63.0,30.16,SSW,213,0.0,0.0,82,0.00,CLR,OVC,0.00,WeatherDisplay:10.37,2013-05-09 05:11:00,
2013-05-09 01:16:00,68.7,63.0,30.16,SSW,213,0.0,0.0,82,0.00,CLR,OVC,0.00,WeatherDisplay:10.37,2013-05-09 05:16:00,
2013-05-09 01:21:00,68.6,62.9,30.16,SSW,213,0.0,0.0,82,0.00,CLR,OVC,0.00,WeatherDisplay:10.37,2013-05-09 05:21:00,
2013-05-09 01:26:00,68.5,62.8,30.16,SSW,213,0.0,0.0,82,0.00,CLR,OVC,0.00,WeatherDisplay:10.37,2013-05-09 05:26:00,
2013-05-09 01:31:00,68.2,62.5,30.15,SSW,213,0.0,0.0,82,0.00,CLR,OVC,0.00,WeatherDisplay:10.37,2013-05-09 05:31:00,
2013-05-09 01:36:00,68.3,62.6,30.15,SSW,213,0.0,0.0,82,0.00,CLR,OVC,0.00,WeatherDisplay:10.37,2013-05-09 05:36:00,
2013-05-09 01:41:00,68.3,62.6,30.15,SSW,213,0.0,0.0,82,0.00,CLR,OVC,0.00,WeatherDisplay:10.37,2013-05-09 05:41:00,
2013-05-09 01:46:00,68.2,62.8,30.15,SSW,213,0.0,0.0,83,0.00,CLR,OVC,0.00,WeatherDisplay:10.37,2013-05-09 05:46:00,
2013-05-09 01:51:00,68.1,62.7,30.15,SSE,160,1.2,1.2,83,0.00,CLR,OVC,0.00,WeatherDisplay:10.37,2013-05-09 05:51:00,
2013-05-09 01:56:00,68.0,62.6,30.14,SSE,147,0.0,0.0,83,0.00,CLR,OVC,0.00,WeatherDisplay:10.37,2013-05-09 05:56:00,
2013-05-09 02:01:00,67.9,62.5,30.14,SSE,147,0.0,0.0,83,0.00,CLR,OVC,0.00,WeatherDisplay:10.37,2013-05-09 06:01:00,
2013-05-09 02:06:00,67.8,62.4,30.14,SSE,147,0.0,0.0,83,0.00,CLR,OVC,0.00,WeatherDisplay:10.37,2013-05-09 06:06:00,
2013-05-09 02:11:00,67.8,62.8,30.14,SSE,147,0.0,0.0,84,0.00,CLR,OVC,0.00,WeatherDisplay:10.37,2013-05-09 06:11:00,
2013-05-09 02:16:00,67.8,62.8,30.14,SSE,147,0.0,0.0,84,0.00,CLR,OVC,0.00,WeatherDisplay:10.37,2013-05-09 06:16:00,
2013-05-09 02:21:00,67.8,62.8,30.14,SSE,147,0.0,0.0,84,0.00,CLR,OVC,0.00,WeatherDisplay:10.37,2013-05-09 06:21:00,
2013-05-09 02:26:00,67.6,62.6,30.13,SSE,147,0.0,0.0,84,0.00,CLR,OVC,0.00,WeatherDisplay:10.37,2013-05-09 06:26:00,
2013-05-09 02:31:00,67.2,62.2,30.13,SSE,152,0.2,1.1,84,0.00,CLR,OVC,0.00,WeatherDisplay:10.37,2013-05-09 06:31:00,
2013-05-09 02:36:00,67.2,62.5,30.13,SSE,152,0.0,0.0,85,0.00,CLR,OVC,0.00,WeatherDisplay:10.37,2013-05-09 06:36:00,
2013-05-09 02:41:00,67.2,62.5,30.13,SSE,152,0.0,0.0,85,0.00,CLR,OVC,0.00,WeatherDisplay:10.37,2013-05-09 06:41:00,
2013-05-09 02:46:00,67.2,62.5,30.13,SSE,152,0.0,0.0,85,0.00,CLR,OVC,0.00,WeatherDisplay:10.37,2013-05-09 06:46:00,
2013-05-09 02:51:00,67.1,62.4,30.12,SSE,152,0.0,0.0,85,0.00,CLR,OVC,0.00,WeatherDisplay:10.37,2013-05-09 06:51:00,
2013-05-09 02:56:00,66.8,62.1,30.12,SSE,152,0.0,0.0,85,0.00,CLR,OVC,0.00,WeatherDisplay:10.37,2013-05-09 06:56:00,
2013-05-09 03:01:00,66.8,62.1,30.12,SSE,152,0.0,0.0,85,0.00,CLR,OVC,0.00,WeatherDisplay:10.37,2013-05-09 07:01:00,
2013-05-09 03:06:00,66.7,62.0,30.12,SSE,152,0.0,0.0,85,0.00,CLR,OVC,0.00,WeatherDisplay:10.37,2013-05-09 07:06:00,
2013-05-09 03:11:00,66.9,62.2,30.12,SSE,152,0.0,0.0,85,0.00,CLR,OVC,0.00,WeatherDisplay:10.37,2013-05-09 07:11:00,
2013-05-09 03:16:00,66.8,62.5,30.12,SSE,152,0.0,0.0,86,0.00,CLR,OVC,0.00,WeatherDisplay:10.37,2013-05-09 07:16:00,
2013-05-09 03:21:00,66.7,62.4,30.12,SSE,152,0.0,0.0,86,0.00,CLR,OVC,0.00,WeatherDisplay:10.37,2013-05-09 07:21:00,
2013-05-09 03:26:00,66.7,62.4,30.12,SSE,152,0.0,0.0,86,0.00,CLR,OVC,0.00,WeatherDisplay:10.37,2013-05-09 07:26:00,
2013-05-09 03:31:00,66.4,62.1,30.12,SSE,152,0.0,0.0,86,0.00,CLR,OVC,0.00,WeatherDisplay:10.37,2013-05-09 07:31:00,
2013-05-09 03:36:00,66.7,62.4,30.12,SSE,152,0.0,0.0,86,0.00,CLR,OVC,0.00,WeatherDisplay:10.37,2013-05-09 07:36:00,
2013-05-09 03:41:00,66.5,62.2,30.12,SSE,152,0.0,0.0,86,0.00,CLR,OVC,0.00,WeatherDisplay:10.37,2013-05-09 07:41:00,
2013-05-09 03:46:00,66.4,62.1,30.12,SSE,152,0.0,0.0,86,0.00,CLR,OVC,0.00,WeatherDisplay:10.37,2013-05-09 07:46:00,
2013-05-09 03:51:00,66.3,62.0,30.12,SSE,152,0.0,0.0,86,0.00,CLR,OVC,0.00,WeatherDisplay:10.37,2013-05-09 07:51:00,
2013-05-09 03:56:00,66.4,62.7,30.12,SSE,152,0.0,0.0,88,0.00,CLR,OVC,0.00,WeatherDisplay:10.37,2013-05-09 07:56:00,
2013-05-09 04:01:00,66.8,63.8,30.12,SSE,152,0.0,0.0,90,0.00,CLR,OVC,0.00,WeatherDisplay:10.37,2013-05-09 08:01:00,
2013-05-09 04:06:00,66.8,64.1,30.11,SSE,152,0.0,0.0,91,0.00,CLR,OVC,0.00,WeatherDisplay:10.37,2013-05-09 08:06:00,
2013-05-09 04:11:00,66.4,63.7,30.11,SSE,152,0.0,0.0,91,0.00,CLR,OVC,0.00,WeatherDisplay:10.37,2013-05-09 08:11:00,
2013-05-09 04:16:00,66.4,64.0,30.11,SSE,152,0.0,0.0,92,0.00,CLR,OVC,0.00,WeatherDisplay:10.37,2013-05-09 08:16:00,
2013-05-09 04:21:00,66.4,64.0,30.11,SSE,152,0.0,0.0,92,0.00,CLR,OVC,0.00,WeatherDisplay:10.37,2013-05-09 08:21:00,
2013-05-09 04:26:00,66.4,64.0,30.11,SSE,152,0.0,0.0,92,0.00,CLR,OVC,0.00,WeatherDisplay:10.37,2013-05-09 08:26:00,
2013-05-09 04:31:00,66.4,64.0,30.11,SSE,152,0.0,0.0,92,0.00,CLR,OVC,0.00,WeatherDisplay:10.37,2013-05-09 08:31:00,
2013-05-09 04:36:00,66.3,63.9,30.11,NW,322,0.0,1.1,92,0.00,CLR,OVC,0.00,WeatherDisplay:10.37,2013-05-09 08:36:00,
2013-05-09 04:41:00,66.3,64.2,30.11,NW,322,0.0,0.0,93,0.00,CLR,OVC,0.00,WeatherDisplay:10.37,2013-05-09 08:41:00,
2013-05-09 04:46:00,66.1,64.0,30.12,NW,322,0.0,0.0,93,0.00,CLR,OVC,0.00,WeatherDisplay:10.37,2013-05-09 08:46:00,
2013-05-09 04:51:00,66.2,64.4,30.12,NW,322,0.0,0.0,94,0.00,CLR,OVC,0.00,WeatherDisplay:10.37,2013-05-09 08:51:00,
2013-05-09 04:56:00,66.2,64.4,30.12,NW,322,0.0,0.0,94,0.00,CLR,OVC,0.00,WeatherDisplay:10.37,2013-05-09 08:56:00,
2013-05-09 05:01:00,66.1,64.3,30.12,NW,322,0.0,0.0,94,0.00,CLR,OVC,0.00,WeatherDisplay:10.37,2013-05-09 09:01:00,
2013-05-09 05:06:00,66.0,64.2,30.12,NW,322,0.0,0.0,94,0.00,CLR,OVC,0.00,WeatherDisplay:10.37,2013-05-09 09:06:00,
2013-05-09 05:11:00,65.9,64.1,30.12,NW,322,0.0,0.0,94,0.00,CLR,OVC,0.00,WeatherDisplay:10.37,2013-05-09 09:11:00,
2013-05-09 05:16:00,66.1,64.3,30.12,NW,322,0.0,0.0,94,0.00,CLR,OVC,0.00,WeatherDisplay:10.37,2013-05-09 09:16:00,
2013-05-09 05:21:00,66.0,64.2,30.12,NW,322,0.0,0.0,94,0.00,CLR,OVC,0.00,WeatherDisplay:10.37,2013-05-09 09:21:00,
2013-05-09 05:26:00,65.9,64.1,30.12,NW,322,0.0,0.0,94,0.00,CLR,OVC,0.00,WeatherDisplay:10.37,2013-05-09 09:26:00,
2013-05-09 05:31:00,65.7,63.6,30.12,NW,322,0.0,0.0,93,0.00,CLR,OVC,0.00,WeatherDisplay:10.37,2013-05-09 09:31:00,
2013-05-09 05:36:00,65.6,63.5,30.11,NW,322,0.0,0.0,93,0.00,CLR,OVC,0.00,WeatherDisplay:10.37,2013-05-09 09:36:00,
2013-05-09 05:41:00,65.3,63.2,30.11,NW,322,0.0,0.0,93,0.00,CLR,OVC,0.00,WeatherDisplay:10.37,2013-05-09 09:41:00,
2013-05-09 05:46:00,65.2,62.8,30.11,NW,322,0.0,0.0,92,0.00,CLR,OVC,0.00,WeatherDisplay:10.37,2013-05-09 09:46:00,
2013-05-09 05:51:00,65.2,62.8,30.11,NW,322,0.0,0.0,92,0.00,CLR,OVC,0.00,WeatherDisplay:10.37,2013-05-09 09:51:00,
2013-05-09 05:56:00,65.1,62.7,30.11,NW,322,0.0,0.0,92,0.00,CLR,OVC,0.00,WeatherDisplay:10.37,2013-05-09 09:56:00,
2013-05-09 06:01:00,65.1,62.7,30.11,NW,322,0.0,0.0,92,0.00,CLR,OVC,0.00,WeatherDisplay:10.37,2013-05-09 10:01:00,
2013-05-09 06:06:00,65.1,62.7,30.12,NW,322,0.0,0.0,92,0.00,CLR,OVC,0.00,WeatherDisplay:10.37,2013-05-09 10:06:00,
2013-05-09 06:11:00,65.1,62.7,30.12,NW,322,0.0,0.0,92,0.00,CLR,OVC,0.00,WeatherDisplay:10.37,2013-05-09 10:11:00,
2013-05-09 06:16:00,65.1,62.7,30.12,NW,322,0.0,0.0,92,0.00,CLR,OVC,0.00,WeatherDisplay:10.37,2013-05-09 10:16:00,
2013-05-09 06:21:00,65.0,62.6,30.12,North,357,0.2,1.1,92,0.00,CLR,OVC,0.00,WeatherDisplay:10.37,2013-05-09 10:21:00,
2013-05-09 06:26:00,65.2,62.8,30.12,NW,309,0.0,0.0,92,0.00,CLR,OVC,0.00,WeatherDisplay:10.37,2013-05-09 10:26:00,
2013-05-09 06:31:00,65.2,62.8,30.12,NW,312,1.2,3.5,92,0.00,CLR,OVC,0.00,WeatherDisplay:10.37,2013-05-09 10:31:00,
2013-05-09 06:36:00,65.1,62.4,30.12,NNW,340,1.5,2.3,91,0.00,CLR,OVC,0.00,WeatherDisplay:10.37,2013-05-09 10:36:00,
2013-05-09 06:41:00,65.3,62.6,30.12,NNW,329,0.0,0.0,91,0.00,CLR,OVC,0.00,WeatherDisplay:10.37,2013-05-09 10:41:00,
2013-05-09 06:46:00,65.2,62.5,30.12,West,281,0.0,0.0,91,0.00,CLR,OVC,0.00,WeatherDisplay:10.37,2013-05-09 10:46:00,
2013-05-09 06:51:00,65.2,62.5,30.12,NNW,344,1.6,3.0,91,0.00,CLR,OVC,0.00,WeatherDisplay:10.37,2013-05-09 10:51:00,
2013-05-09 06:56:00,65.1,62.4,30.13,NW,304,0.6,1.1,91,0.00,CLR,OVC,0.00,WeatherDisplay:10.37,2013-05-09 10:56:00,
2013-05-09 07:01:00,65.1,62.4,30.13,NW,304,0.0,0.0,91,0.00,CLR,OVC,0.00,WeatherDisplay:10.37,2013-05-09 11:01:00,
2013-05-09 07:06:00,65.2,62.5,30.13,NW,312,0.0,0.0,91,0.00,CLR,OVC,0.00,WeatherDisplay:10.37,2013-05-09 11:06:00,
2013-05-09 07:11:00,65.2,62.5,30.13,NW,312,0.0,0.0,91,0.00,CLR,OVC,0.00,WeatherDisplay:10.37,2013-05-09 11:11:00,
2013-05-09 07:16:00,65.3,62.6,30.14,NW,312,0.0,0.0,91,0.00,CLR,OVC,0.00,WeatherDisplay:10.37,2013-05-09 11:16:00,
2013-05-09 07:21:00,65.2,62.5,30.14,NW,312,0.0,0.0,91,0.00,CLR,OVC,0.00,WeatherDisplay:10.37,2013-05-09 11:21:00,
2013-05-09 07:26:00,65.3,62.6,30.14,NW,312,0.0,0.0,91,0.00,CLR,OVC,0.00,WeatherDisplay:10.37,2013-05-09 11:26:00,
2013-05-09 07:31:00,65.5,63.1,30.15,NW,312,0.0,0.0,92,0.00,CLR,OVC,0.00,WeatherDisplay:10.37,2013-05-09 11:31:00,
2013-05-09 07:36:00,65.7,63.3,30.15,NW,312,0.0,0.0,92,0.00,CLR,OVC,0.00,WeatherDisplay:10.37,2013-05-09 11:36:00,
2013-05-09 07:41:00,65.9,63.5,30.15,NW,312,0.0,0.0,92,0.00,CLR,OVC,0.00,WeatherDisplay:10.37,2013-05-09 11:41:00,
2013-05-09 07:46:00,66.1,63.7,30.15,NW,312,0.0,0.0,92,0.00,CLR,OVC,0.00,WeatherDisplay:10.37,2013-05-09 11:46:00,
2013-05-09 07:51:00,66.3,63.9,30.15,NW,312,0.0,0.0,92,0.00,CLR,OVC,0.00,WeatherDisplay:10.37,2013-05-09 11:51:00,
2013-05-09 07:56:00,66.8,64.4,30.15,NW,312,0.0,0.0,92,0.00,CLR,OVC,0.00,WeatherDisplay:10.37,2013-05-09 11:56:00,
2013-05-09 08:01:00,67.0,64.6,30.16,NW,312,0.0,0.0,92,0.00,CLR,OVC,0.00,WeatherDisplay:10.37,2013-05-09 12:01:00,
2013-05-09 08:06:00,67.4,65.0,30.16,NW,312,0.0,0.0,92,0.00,CLR,OVC,0.00,WeatherDisplay:10.37,2013-05-09 12:06:00,
2013-05-09 08:11:00,68.0,65.6,30.16,NW,312,0.0,0.0,92,0.00,CLR,OVC,0.00,WeatherDisplay:10.37,2013-05-09 12:11:00,
2013-05-09 08:16:00,68.1,65.7,30.16,NNE,23,0.4,0.5,92,0.00,CLR,OVC,0.00,WeatherDisplay:10.37,2013-05-09 12:16:00,
2013-05-09 08:21:00,68.5,65.8,30.16,NNW,340,0.0,2.3,91,0.00,CLR,OVC,0.00,WeatherDisplay:10.37,2013-05-09 12:21:00,
2013-05-09 08:26:00,69.0,66.3,30.16,NNW,337,0.8,2.3,91,0.00,CLR,OVC,0.00,WeatherDisplay:10.37,2013-05-09 12:26:00,
2013-05-09 08:31:00,69.5,66.4,30.16,NW,318,1.6,2.4,90,0.00,CLR,OVC,0.00,WeatherDisplay:10.37,2013-05-09 12:31:00,
2013-05-09 08:36:00,69.7,66.6,30.16,North,1,4.9,5.8,90,0.00,CLR,OVC,0.00,WeatherDisplay:10.37,2013-05-09 12:36:00,
2013-05-09 08:41:00,70.2,66.1,30.16,NNW,344,0.9,4.6,87,0.00,CLR,OVC,0.00,WeatherDisplay:10.37,2013-05-09 12:41:00,
2013-05-09 08:46:00,70.7,66.0,30.16,NNW,333,1.5,4.8,85,0.00,CLR,OVC,0.00,WeatherDisplay:10.37,2013-05-09 12:46:00,
2013-05-09 08:51:00,71.4,66.0,30.16,NW,305,3.9,6.9,83,0.00,CLR,OVC,0.00,WeatherDisplay:10.37,2013-05-09 12:51:00,
2013-05-09 08:56:00,71.7,65.9,30.16,North,356,2.1,5.8,82,0.00,CLR,OVC,0.00,WeatherDisplay:10.37,2013-05-09 12:56:00,
2013-05-09 09:01:00,71.8,65.7,30.16,NNW,340,3.1,4.6,81,0.00,CLR,OVC,0.00,WeatherDisplay:10.37,2013-05-09 13:01:00,
2013-05-09 09:06:00,72.0,65.5,30.17,NW,326,2.3,5.3,80,0.00,CLR,OVC,0.00,WeatherDisplay:10.37,2013-05-09 13:06:00,
2013-05-09 09:11:00,72.4,65.5,30.17,NW,323,4.8,6.9,79,0.00,CLR,OVC,0.00,WeatherDisplay:10.37,2013-05-09 13:11:00,
2013-05-09 09:16:00,72.8,65.9,30.17,North,7,3.9,5.8,79,0.00,CLR,OVC,0.00,WeatherDisplay:10.37,2013-05-09 13:16:00,
2013-05-09 09:21:00,73.0,65.7,30.17,NNW,342,5.1,6.9,78,0.00,CLR,OVC,0.00,WeatherDisplay:10.37,2013-05-09 13:21:00,
2013-05-09 09:26:00,73.3,65.7,30.17,NW,312,1.7,4.6,77,0.00,CLR,OVC,0.00,WeatherDisplay:10.37,2013-05-09 13:26:00,
2013-05-09 09:31:00,73.6,65.9,30.17,East,79,3.5,10.4,77,0.00,CLR,OVC,0.00,WeatherDisplay:10.37,2013-05-09 13:31:00,
2013-05-09 09:36:00,73.7,65.7,30.17,North,3,3.6,5.8,76,0.00,CLR,OVC,0.00,WeatherDisplay:10.37,2013-05-09 13:36:00,
2013-05-09 09:41:00,73.7,65.7,30.18,NW,312,1.8,3.5,76,0.00,CLR,OVC,0.00,WeatherDisplay:10.37,2013-05-09 13:41:00,
2013-05-09 09:46:00,74.1,66.0,30.18,North,7,2.1,4.4,76,0.00,CLR,OVC,0.00,WeatherDisplay:10.37,2013-05-09 13:46:00,
2013-05-09 09:51:00,74.7,66.2,30.18,NNW,330,5.6,9.2,75,0.00,CLR,OVC,0.00,WeatherDisplay:10.37,2013-05-09 13:51:00,
2013-05-09 09:56:00,75.2,66.3,30.18,North,3,4.5,8.1,74,0.00,CLR,OVC,0.00,WeatherDisplay:10.37,2013-05-09 13:56:00,
2013-05-09 10:01:00,75.1,65.5,30.18,North,6,4.6,8.5,72,0.00,CLR,OVC,0.00,WeatherDisplay:10.37,2013-05-09 14:01:00,
2013-05-09 10:06:00,75.4,65.7,30.18,West,275,2.9,6.9,72,0.00,CLR,OVC,0.00,WeatherDisplay:10.37,2013-05-09 14:06:00,
2013-05-09 10:11:00,75.8,65.3,30.18,NNW,340,4.8,5.6,70,0.00,CLR,OVC,0.00,WeatherDisplay:10.37,2013-05-09 14:11:00,
2013-05-09 10:16:00,75.8,65.3,30.18,North,1,5.2,9.2,70,0.00,CLR,OVC,0.00,WeatherDisplay:10.37,2013-05-09 14:16:00,
2013-05-09 10:21:00,76.1,65.6,30.18,NNW,337,5.0,5.8,70,0.00,CLR,OVC,0.00,WeatherDisplay:10.37,2013-05-09 14:21:00,
2013-05-09 10:26:00,76.1,65.2,30.18,NNW,337,3.5,6.9,69,0.00,CLR,OVC,0.00,WeatherDisplay:10.37,2013-05-09 14:26:00,
2013-05-09 10:31:00,76.2,65.3,30.18,NW,304,4.8,6.9,69,0.00,CLR,OVC,0.00,WeatherDisplay:10.37,2013-05-09 14:31:00,
2013-05-09 10:36:00,76.5,65.6,30.18,NNE,31,5.2,6.9,69,0.00,CLR,OVC,0.00,WeatherDisplay:10.37,2013-05-09 14:36:00,
2013-05-09 10:41:00,76.8,65.9,30.18,NW,323,3.3,5.8,69,0.00,CLR,OVC,0.00,WeatherDisplay:10.37,2013-05-09 14:41:00,
2013-05-09 10:46:00,76.8,65.4,30.18,NW,318,1.9,3.5,68,0.00,CLR,OVC,0.00,WeatherDisplay:10.37,2013-05-09 14:46:00,
2013-05-09 10:51:00,77.7,65.9,30.18,West,277,2.8,4.6,67,0.00,CLR,OVC,0.00,WeatherDisplay:10.37,2013-05-09 14:51:00,
2013-05-09 10:56:00,77.9,65.6,30.18,North,359,5.4,9.2,66,0.00,CLR,OVC,0.00,WeatherDisplay:10.37,2013-05-09 14:56:00,
2013-05-09 11:01:00,78.3,66.0,30.18,NNW,346,5.4,8.1,66,0.00,CLR,OVC,0.00,WeatherDisplay:10.37,2013-05-09 15:01:00,
2013-05-09 11:06:00,78.4,65.7,30.19,NW,325,4.0,6.9,65,0.00,CLR,OVC,0.00,WeatherDisplay:10.37,2013-05-09 15:06:00,
2013-05-09 11:11:00,78.8,66.5,30.19,NNW,346,4.6,8.1,66,0.00,CLR,OVC,0.00,WeatherDisplay:10.37,2013-05-09 15:11:00,
2013-05-09 11:16:00,79.1,65.9,30.19,NW,306,7.2,10.4,64,0.00,CLR,OVC,0.00,WeatherDisplay:10.37,2013-05-09 15:16:00,
2013-05-09 11:21:00,79.3,66.5,30.18,NNE,32,4.3,10.4,65,0.00,CLR,OVC,0.00,WeatherDisplay:10.37,2013-05-09 15:21:00,
2013-05-09 11:26:00,79.4,66.2,30.18,NNW,335,5.9,9.2,64,0.00,CLR,OVC,0.00,WeatherDisplay:10.37,2013-05-09 15:26:00,
2013-05-09 11:31:00,79.7,66.4,30.18,NNW,337,3.6,9.2,64,0.00,CLR,OVC,0.00,WeatherDisplay:10.37,2013-05-09 15:31:00,
2013-05-09 11:36:00,80.1,66.8,30.18,NNE,25,6.1,9.2,64,0.00,CLR,OVC,0.00,WeatherDisplay:10.37,2013-05-09 15:36:00,
2013-05-09 11:41:00,80.4,66.6,30.18,WNW,284,4.2,7.5,63,0.00,CLR,OVC,0.00,WeatherDisplay:10.37,2013-05-09 15:41:00,
2013-05-09 11:46:00,80.5,66.7,30.19,NNW,340,6.4,10.4,63,0.00,CLR,OVC,0.00,WeatherDisplay:10.37,2013-05-09 15:46:00,
2013-05-09 11:51:00,80.4,65.7,30.18,NW,326,8.0,13.8,61,0.00,CLR,OVC,0.00,WeatherDisplay:10.37,2013-05-09 15:51:00,
2013-05-09 11:56:00,80.5,66.3,30.18,NNW,337,4.4,11.5,62,0.00,CLR,OVC,0.00,WeatherDisplay:10.37,2013-05-09 15:56:00,
2013-05-09 12:01:00,80.8,65.6,30.18,West,274,7.4,11.5,60,0.00,CLR,OVC,0.00,WeatherDisplay:10.37,2013-05-09 16:01:00,
2013-05-09 12:06:00,81.1,65.9,30.19,NW,315,8.8,9.2,60,0.00,CLR,OVC,0.00,WeatherDisplay:10.37,2013-05-09 16:06:00,
2013-05-09 12:11:00,81.1,66.4,30.19,NNW,336,6.7,11.5,61,0.00,CLR,OVC,0.00,WeatherDisplay:10.37,2013-05-09 16:11:00,
2013-05-09 12:16:00,81.5,66.3,30.19,NW,322,6.9,11.5,60,0.00,CLR,OVC,0.00,WeatherDisplay:10.37,2013-05-09 16:16:00,
2013-05-09 12:21:00,81.6,66.4,30.19,NW,308,6.5,10.4,60,0.00,CLR,OVC,0.00,WeatherDisplay:10.37,2013-05-09 16:21:00,
2013-05-09 12:26:00,81.7,66.5,30.19,NNE,27,4.5,11.5,60,0.00,CLR,OVC,0.00,WeatherDisplay:10.37,2013-05-09 16:26:00,
2013-05-09 12:31:00,81.7,65.5,30.18,NNE,13,4.4,9.2,58,0.00,CLR,OVC,0.00,WeatherDisplay:10.37,2013-05-09 16:31:00,
2013-05-09 12:36:00,82.0,66.3,30.18,NNE,18,3.9,6.9,59,0.00,CLR,OVC,0.00,WeatherDisplay:10.37,2013-05-09 16:36:00,
2013-05-09 12:41:00,82.2,66.0,30.18,WNW,301,5.7,6.9,58,0.00,CLR,OVC,0.00,WeatherDisplay:10.37,2013-05-09 16:41:00,
2013-05-09 12:46:00,82.5,65.7,30.18,North,357,6.1,11.2,57,0.00,CLR,OVC,0.00,WeatherDisplay:10.37,2013-05-09 16:46:00,
2013-05-09 12:51:00,82.7,65.9,30.17,North,3,5.7,8.1,57,0.00,CLR,OVC,0.00,WeatherDisplay:10.37,2013-05-09 16:51:00,
2013-05-09 12:56:00,82.7,66.4,30.17,NNW,346,8.2,11.5,58,0.00,CLR,OVC,0.00,WeatherDisplay:10.37,2013-05-09 16:56:00,
2013-05-09 13:01:00,83.0,66.2,30.17,NNW,333,4.5,9.2,57,0.00,CLR,OVC,0.00,WeatherDisplay:10.37,2013-05-09 17:01:00,
2013-05-09 13:06:00,83.3,66.5,30.17,NNW,343,3.4,6.9,57,0.00,CLR,OVC,0.00,WeatherDisplay:10.37,2013-05-09 17:06:00,
2013-05-09 13:11:00,83.7,66.3,30.17,NW,322,4.8,9.2,56,0.00,CLR,OVC,0.00,WeatherDisplay:10.37,2013-05-09 17:11:00,
2013-05-09 13:16:00,83.6,65.7,30.17,West,281,5.4,11.5,55,0.00,CLR,OVC,0.00,WeatherDisplay:10.37,2013-05-09 17:16:00,
2013-05-09 13:21:00,83.4,66.1,30.17,WNW,299,6.2,10.4,56,0.00,CLR,OVC,0.00,WeatherDisplay:10.37,2013-05-09 17:21:00,
2013-05-09 13:26:00,83.4,66.1,30.17,NW,318,7.6,11.5,56,0.00,CLR,OVC,0.00,WeatherDisplay:10.37,2013-05-09 17:26:00,
2013-05-09 13:31:00,83.7,66.3,30.16,NW,309,6.6,12.7,56,0.00,CLR,OVC,0.00,WeatherDisplay:10.37,2013-05-09 17:31:00,
2013-05-09 13:36:00,84.2,65.8,30.16,NNW,328,6.9,11.5,54,0.00,CLR,OVC,0.00,WeatherDisplay:10.37,2013-05-09 17:36:00,
2013-05-09 13:41:00,84.5,67.1,30.16,NNW,336,6.2,9.2,56,0.00,CLR,OVC,0.00,WeatherDisplay:10.37,2013-05-09 17:41:00,
2013-05-09 13:46:00,84.8,66.3,30.16,North,353,6.0,9.2,54,0.00,CLR,OVC,0.00,WeatherDisplay:10.37,2013-05-09 17:46:00,
2013-05-09 13:51:00,85.0,66.5,30.16,NNW,340,5.7,10.4,54,0.00,CLR,OVC,0.00,WeatherDisplay:10.37,2013-05-09 17:51:00,
2013-05-09 13:56:00,85.2,66.7,30.16,North,359,5.1,8.1,54,0.00,CLR,OVC,0.00,WeatherDisplay:10.37,2013-05-09 17:56:00,
2013-05-09 14:01:00,85.6,66.0,30.16,North,360,6.7,10.4,52,0.00,CLR,OVC,0.00,WeatherDisplay:10.37,2013-05-09 18:01:00,
2013-05-09 14:06:00,85.0,66.0,30.16,NNE,14,6.9,11.5,53,0.00,CLR,OVC,0.00,WeatherDisplay:10.37,2013-05-09 18:06:00,
2013-05-09 14:11:00,85.2,65.6,30.16,NNW,337,9.9,12.7,52,0.00,CLR,OVC,0.00,WeatherDisplay:10.37,2013-05-09 18:11:00,
2013-05-09 14:16:00,85.2,66.7,30.16,NNW,329,6.5,10.4,54,0.00,CLR,OVC,0.00,WeatherDisplay:10.37,2013-05-09 18:16:00,
2013-05-09 14:21:00,85.5,66.4,30.15,NNE,28,4.6,10.4,53,0.00,CLR,OVC,0.00,WeatherDisplay:10.37,2013-05-09 18:21:00,
2013-05-09 14:26:00,85.6,67.0,30.15,NNW,339,5.6,9.2,54,0.00,CLR,OVC,0.00,WeatherDisplay:10.37,2013-05-09 18:26:00,
2013-05-09 14:31:00,86.2,66.5,30.15,NW,316,7.0,10.4,52,0.00,CLR,OVC,0.00,WeatherDisplay:10.37,2013-05-09 18:31:00,
2013-05-09 14:36:00,85.1,66.6,30.15,WNW,301,4.7,10.4,54,0.00,CLR,OVC,0.00,WeatherDisplay:10.37,2013-05-09 18:36:00,
2013-05-09 14:41:00,85.4,66.9,30.14,WNW,302,6.8,9.2,54,0.00,CLR,OVC,0.00,WeatherDisplay:10.37,2013-05-09 18:41:00,
2013-05-09 14:46:00,85.2,67.2,30.14,WNW,299,5.0,9.2,55,0.00,CLR,OVC,0.00,WeatherDisplay:10.37,2013-05-09 18:46:00,
2013-05-09 14:51:00,85.8,66.1,30.14,WNW,301,4.9,9.2,52,0.00,CLR,OVC,0.00,WeatherDisplay:10.37,2013-05-09 18:51:00,
2013-05-09 14:56:00,84.8,65.2,30.14,WNW,287,7.2,9.2,52,0.00,CLR,OVC,0.00,WeatherDisplay:10.37,2013-05-09 18:56:00,
2013-05-09 15:01:00,85.5,67.0,30.14,NNW,346,4.1,9.1,54,0.00,CLR,OVC,0.00,WeatherDisplay:10.37,2013-05-09 19:01:00,
2013-05-09 15:06:00,83.8,66.4,30.14,WNW,296,7.6,11.5,56,0.00,CLR,OVC,0.00,WeatherDisplay:10.37,2013-05-09 19:06:00,
2013-05-09 15:11:00,83.5,66.2,30.14,NW,312,5.4,10.4,56,0.00,CLR,OVC,0.00,WeatherDisplay:10.37,2013-05-09 19:11:00,
2013-05-09 15:16:00,83.5,66.2,30.14,NW,319,6.2,10.4,56,0.00,CLR,OVC,0.00,WeatherDisplay:10.37,2013-05-09 19:16:00,
2013-05-09 15:21:00,83.4,66.6,30.14,NW,318,5.4,9.2,57,0.00,CLR,OVC,0.00,WeatherDisplay:10.37,2013-05-09 19:21:00,
2013-05-09 15:26:00,83.1,66.8,30.14,NNW,339,4.2,6.9,58,0.00,CLR,OVC,0.00,WeatherDisplay:10.37,2013-05-09 19:26:00,
2013-05-09 15:31:00,82.7,65.4,30.14,WNW,288,6.7,11.5,56,0.00,CLR,OVC,0.00,WeatherDisplay:10.37,2013-05-09 19:31:00,
2013-05-09 15:36:00,81.5,65.8,30.14,NNW,335,5.9,9.2,59,0.00,CLR,OVC,0.00,WeatherDisplay:10.37,2013-05-09 19:36:00,
2013-05-09 15:41:00,82.5,66.2,30.14,North,354,4.2,8.1,58,0.00,CLR,OVC,0.00,WeatherDisplay:10.37,2013-05-09 19:41:00,
2013-05-09 15:46:00,82.0,65.8,30.14,WSW,256,7.5,11.5,58,0.00,CLR,OVC,0.00,WeatherDisplay:10.37,2013-05-09 19:46:00,
2013-05-09 15:51:00,82.3,66.0,30.14,NW,325,2.9,4.0,58,0.00,CLR,OVC,0.00,WeatherDisplay:10.37,2013-05-09 19:51:00,
2013-05-09 15:56:00,82.6,65.8,30.14,WNW,288,8.5,10.4,57,0.00,CLR,OVC,0.00,WeatherDisplay:10.37,2013-05-09 19:56:00,
2013-05-09 16:01:00,82.5,65.2,30.14,West,261,7.4,10.4,56,0.00,CLR,OVC,0.00,WeatherDisplay:10.37,2013-05-09 20:01:00,
2013-05-09 16:06:00,82.2,64.9,30.14,West,280,6.2,11.5,56,0.00,CLR,OVC,0.00,WeatherDisplay:10.37,2013-05-09 20:06:00,
2013-05-09 16:11:00,83.4,66.1,30.14,West,270,3.5,9.6,56,0.00,CLR,OVC,0.00,WeatherDisplay:10.37,2013-05-09 20:11:00,
2013-05-09 16:16:00,83.2,66.4,30.14,NNW,329,7.4,11.5,57,0.00,CLR,OVC,0.00,WeatherDisplay:10.37,2013-05-09 20:16:00,
2013-05-09 16:21:00,84.4,65.9,30.14,West,267,5.9,8.1,54,0.00,CLR,OVC,0.00,WeatherDisplay:10.37,2013-05-09 20:21:00,
2013-05-09 16:26:00,85.2,66.1,30.14,NW,322,4.8,6.9,53,0.00,CLR,OVC,0.00,WeatherDisplay:10.37,2013-05-09 20:26:00,
2013-05-09 16:31:00,85.0,66.0,30.13,WNW,282,5.2,11.5,53,0.00,CLR,OVC,0.00,WeatherDisplay:10.37,2013-05-09 20:31:00,
2013-05-09 16:36:00,85.7,66.6,30.13,WNW,299,4.4,5.8,53,0.00,CLR,OVC,0.00,WeatherDisplay:10.37,2013-05-09 20:36:00,
2013-05-09 16:41:00,85.7,66.0,30.13,WSW,258,6.7,10.4,52,0.00,CLR,OVC,0.00,WeatherDisplay:10.37,2013-05-09 20:41:00,
2013-05-09 16:46:00,85.4,65.8,30.13,NW,318,3.7,8.1,52,0.00,CLR,OVC,0.00,WeatherDisplay:10.37,2013-05-09 20:46:00,
2013-05-09 16:51:00,83.8,65.9,30.13,NW,306,4.0,7.7,55,0.00,CLR,OVC,0.00,WeatherDisplay:10.37,2013-05-09 20:51:00,
2013-05-09 16:56:00,83.8,65.9,30.13,NNW,347,4.1,9.2,55,0.00,CLR,OVC,0.00,WeatherDisplay:10.37,2013-05-09 20:56:00,
2013-05-09 17:01:00,83.8,65.9,30.13,NNW,346,4.7,5.8,55,0.00,CLR,OVC,0.00,WeatherDisplay:10.37,2013-05-09 21:01:00,
2013-05-09 17:06:00,83.7,65.8,30.13,NNW,343,5.6,8.1,55,0.00,CLR,OVC,0.00,WeatherDisplay:10.37,2013-05-09 21:06:00,
2013-05-09 17:11:00,83.4,65.0,30.13,West,270,5.6,10.4,54,0.00,CLR,OVC,0.00,WeatherDisplay:10.37,2013-05-09 21:11:00,
2013-05-09 17:16:00,83.4,65.5,30.13,WNW,288,7.4,9.2,55,0.00,CLR,OVC,0.00,WeatherDisplay:10.37,2013-05-09 21:16:00,
2013-05-09 17:21:00,82.6,65.8,30.12,WSW,248,7.0,9.2,57,0.00,CLR,OVC,0.00,WeatherDisplay:10.37,2013-05-09 21:21:00,
2013-05-09 17:26:00,83.8,65.4,30.12,NW,305,2.8,6.9,54,0.00,CLR,OVC,0.00,WeatherDisplay:10.37,2013-05-09 21:26:00,
2013-05-09 17:31:00,84.8,65.8,30.12,NW,315,6.0,11.5,53,0.00,CLR,OVC,0.00,WeatherDisplay:10.37,2013-05-09 21:31:00,
2013-05-09 17:36:00,85.5,65.9,30.12,NW,312,3.2,5.8,52,0.00,CLR,OVC,0.00,WeatherDisplay:10.37,2013-05-09 21:36:00,
2013-05-09 17:41:00,84.4,66.5,30.11,NNW,335,3.5,6.9,55,0.00,CLR,OVC,0.00,WeatherDisplay:10.37,2013-05-09 21:41:00,
2013-05-09 17:46:00,85.4,65.8,30.11,NW,305,3.4,4.6,52,0.00,CLR,OVC,0.00,WeatherDisplay:10.37,2013-05-09 21:46:00,
2013-05-09 17:51:00,85.8,65.6,30.11,WNW,292,6.1,10.4,51,0.00,CLR,OVC,0.00,WeatherDisplay:10.37,2013-05-09 21:51:00,
2013-05-09 17:56:00,85.8,66.1,30.11,NW,319,3.2,6.7,52,0.00,CLR,OVC,0.00,WeatherDisplay:10.37,2013-05-09 21:56:00,
2013-05-09 18:01:00,85.5,65.3,30.11,NW,315,4.9,6.9,51,0.00,CLR,OVC,0.00,WeatherDisplay:10.37,2013-05-09 22:01:00,
2013-05-09 18:06:00,85.7,66.0,30.11,West,281,5.5,8.1,52,0.00,CLR,OVC,0.00,WeatherDisplay:10.37,2013-05-09 22:06:00,
2013-05-09 18:11:00,82.6,65.8,30.11,WNW,299,8.0,9.2,57,0.00,CLR,OVC,0.00,WeatherDisplay:10.37,2013-05-09 22:11:00,
2013-05-09 18:16:00,82.0,65.8,30.11,WNW,299,5.8,6.9,58,0.00,CLR,OVC,0.00,WeatherDisplay:10.37,2013-05-09 22:16:00,
2013-05-09 18:21:00,83.2,65.4,30.12,NW,308,4.6,8.1,55,0.00,CLR,OVC,0.00,WeatherDisplay:10.37,2013-05-09 22:21:00,
2013-05-09 18:26:00,83.4,66.1,30.11,NNW,328,5.2,6.9,56,0.00,CLR,OVC,0.00,WeatherDisplay:10.37,2013-05-09 22:26:00,
2013-05-09 18:31:00,83.6,66.2,30.12,WNW,288,4.1,6.9,56,0.00,CLR,OVC,0.00,WeatherDisplay:10.37,2013-05-09 22:31:00,
2013-05-09 18:36:00,83.4,66.6,30.12,NW,305,1.7,6.9,57,0.00,CLR,OVC,0.00,WeatherDisplay:10.37,2013-05-09 22:36:00,
2013-05-09 18:41:00,82.8,66.0,30.12,WNW,298,6.5,9.2,57,0.00,CLR,OVC,0.00,WeatherDisplay:10.37,2013-05-09 22:41:00,
2013-05-09 18:46:00,82.4,66.1,30.12,NNW,333,7.4,9.2,58,0.00,CLR,OVC,0.00,WeatherDisplay:10.37,2013-05-09 22:46:00,
2013-05-09 18:51:00,82.1,65.9,30.12,NW,311,4.5,9.2,58,0.00,CLR,OVC,0.00,WeatherDisplay:10.37,2013-05-09 22:51:00,
2013-05-09 18:56:00,81.6,66.4,30.12,WNW,295,4.1,5.8,60,0.00,CLR,OVC,0.00,WeatherDisplay:10.37,2013-05-09 22:56:00,
2013-05-09 19:01:00,81.3,66.1,30.12,NNW,329,5.0,13.8,60,0.00,CLR,OVC,0.00,WeatherDisplay:10.37,2013-05-09 23:01:00,
2013-05-09 19:06:00,80.6,65.9,30.12,NW,316,4.3,6.9,61,0.00,CLR,OVC,0.00,WeatherDisplay:10.37,2013-05-09 23:06:00,
2013-05-09 19:11:00,80.1,65.9,30.12,NNW,337,5.4,9.2,62,0.00,CLR,OVC,0.00,WeatherDisplay:10.37,2013-05-09 23:11:00,
2013-05-09 19:16:00,79.9,66.2,30.12,NW,311,5.2,11.5,63,0.00,CLR,OVC,0.00,WeatherDisplay:10.37,2013-05-09 23:16:00,
2013-05-09 19:21:00,79.8,66.5,30.12,North,360,5.2,8.1,64,0.00,CLR,OVC,0.00,WeatherDisplay:10.37,2013-05-09 23:21:00,
2013-05-09 19:26:00,79.7,66.4,30.12,NW,311,5.1,12.7,64,0.00,CLR,OVC,0.00,WeatherDisplay:10.37,2013-05-09 23:26:00,
2013-05-09 19:31:00,79.3,66.1,30.12,WNW,282,6.9,9.2,64,0.00,CLR,OVC,0.00,WeatherDisplay:10.37,2013-05-09 23:31:00,
2013-05-09 19:36:00,78.9,66.1,30.12,WNW,296,4.8,6.9,65,0.00,CLR,OVC,0.00,WeatherDisplay:10.37,2013-05-09 23:36:00,
2013-05-09 19:41:00,79.0,66.2,30.12,NNW,340,5.4,8.1,65,0.00,CLR,OVC,0.00,WeatherDisplay:10.37,2013-05-09 23:41:00,
2013-05-09 19:46:00,78.8,66.0,30.12,NW,309,4.5,8.1,65,0.00,CLR,OVC,0.00,WeatherDisplay:10.37,2013-05-09 23:46:00,
2013-05-09 19:51:00,78.5,65.8,30.12,NNW,329,6.5,10.4,65,0.00,CLR,OVC,0.00,WeatherDisplay:10.37,2013-05-09 23:51:00,
2013-05-09 19:56:00,78.2,65.5,30.12,NW,316,5.0,11.5,65,0.00,CLR,OVC,0.00,WeatherDisplay:10.37,2013-05-09 23:56:00,
2013-05-09 20:01:00,78.0,65.7,30.12,NNW,328,3.9,8.1,66,0.00,CLR,OVC,0.00,WeatherDisplay:10.37,2013-05-10 00:01:00,
2013-05-09 20:06:00,77.8,66.0,30.12,NNW,332,4.5,5.8,67,0.00,CLR,OVC,0.00,WeatherDisplay:10.37,2013-05-10 00:06:00,
2013-05-09 20:11:00,77.4,65.6,30.12,NW,313,2.9,6.9,67,0.00,CLR,OVC,0.00,WeatherDisplay:10.37,2013-05-10 00:11:00,
2013-05-09 20:16:00,77.4,66.0,30.12,NW,316,4.5,8.1,68,0.00,CLR,OVC,0.00,WeatherDisplay:10.37,2013-05-10 00:16:00,
2013-05-09 20:21:00,77.0,65.6,30.12,NW,325,2.5,4.6,68,0.00,CLR,OVC,0.00,WeatherDisplay:10.37,2013-05-10 00:21:00,
2013-05-09 20:26:00,77.2,65.8,30.12,NNW,333,4.3,8.1,68,0.00,CLR,OVC,0.00,WeatherDisplay:10.37,2013-05-10 00:26:00,
2013-05-09 20:31:00,77.0,65.6,30.11,North,0,1.5,4.6,68,0.00,CLR,OVC,0.00,WeatherDisplay:10.37,2013-05-10 00:31:00,
2013-05-09 20:36:00,76.6,65.7,30.11,NNW,333,4.4,6.9,69,0.00,CLR,OVC,0.00,WeatherDisplay:10.37,2013-05-10 00:36:00,
2013-05-09 20:41:00,76.7,65.8,30.12,WNW,295,2.6,5.5,69,0.00,CLR,OVC,0.00,WeatherDisplay:10.37,2013-05-10 00:41:00,
2013-05-09 20:46:00,76.5,65.6,30.12,NNW,347,2.4,6.9,69,0.00,CLR,OVC,0.00,WeatherDisplay:10.37,2013-05-10 00:46:00,
2013-05-09 20:51:00,76.4,65.5,30.12,North,349,0.0,1.1,69,0.00,CLR,OVC,0.00,WeatherDisplay:10.37,2013-05-10 00:51:00,
2013-05-09 20:56:00,76.4,65.5,30.12,NE,38,0.1,2.3,69,0.00,CLR,OVC,0.00,WeatherDisplay:10.37,2013-05-10 00:56:00,
2013-05-09 21:01:00,76.4,65.5,30.12,NNW,343,2.2,4.7,69,0.00,CLR,OVC,0.00,WeatherDisplay:10.37,2013-05-10 01:01:00,
2013-05-09 21:06:00,76.4,65.9,30.12,NNE,16,2.1,3.5,70,0.00,CLR,OVC,0.00,WeatherDisplay:10.37,2013-05-10 01:06:00,
2013-05-09 21:11:00,76.2,65.7,30.12,North,4,1.7,3.5,70,0.00,CLR,OVC,0.00,WeatherDisplay:10.37,2013-05-10 01:11:00,
2013-05-09 21:16:00,76.3,65.8,30.11,NE,41,0.6,2.3,70,0.00,CLR,OVC,0.00,WeatherDisplay:10.37,2013-05-10 01:16:00,
2013-05-09 21:21:00,76.0,65.5,30.11,NNE,14,2.2,3.5,70,0.00,CLR,OVC,0.00,WeatherDisplay:10.37,2013-05-10 01:21:00,
2013-05-09 21:26:00,76.0,65.9,30.11,NE,51,1.0,2.3,71,0.00,CLR,OVC,0.00,WeatherDisplay:10.37,2013-05-10 01:26:00,
2013-05-09 21:31:00,75.8,65.7,30.12,NNE,31,0.3,2.3,71,0.00,CLR,OVC,0.00,WeatherDisplay:10.37,2013-05-10 01:31:00,
2013-05-09 21:36:00,75.8,66.1,30.12,ENE,61,0.9,2.3,72,0.00,CLR,OVC,0.00,WeatherDisplay:10.37,2013-05-10 01:36:00,
2013-05-09 21:41:00,75.5,65.4,30.13,ENE,61,0.0,0.0,71,0.00,CLR,OVC,0.00,WeatherDisplay:10.37,2013-05-10 01:41:00,
2013-05-09 21:46:00,75.3,65.6,30.13,ENE,61,0.0,0.0,72,0.00,CLR,OVC,0.00,WeatherDisplay:10.37,2013-05-10 01:46:00,
2013-05-09 21:51:00,75.1,65.5,30.13,ENE,61,0.0,0.0,72,0.00,CLR,OVC,0.00,WeatherDisplay:10.37,2013-05-10 01:51:00,
2013-05-09 21:56:00,75.0,65.8,30.13,NE,54,0.0,0.0,73,0.00,CLR,OVC,0.00,WeatherDisplay:10.37,2013-05-10 01:56:00,
2013-05-09 22:01:00,74.7,65.5,30.14,NE,54,0.0,0.0,73,0.00,CLR,OVC,0.00,WeatherDisplay:10.37,2013-05-10 02:01:00,
2013-05-09 22:06:00,74.4,65.2,30.14,NE,54,0.0,0.0,73,0.00,CLR,OVC,0.00,WeatherDisplay:10.37,2013-05-10 02:06:00,
2013-05-09 22:11:00,74.4,65.6,30.14,NE,54,0.0,0.0,74,0.00,CLR,OVC,0.00,WeatherDisplay:10.37,2013-05-10 02:11:00,
2013-05-09 22:16:00,74.0,65.2,30.14,NE,54,0.0,0.0,74,0.00,CLR,OVC,0.00,WeatherDisplay:10.37,2013-05-10 02:16:00,
2013-05-09 22:21:00,74.0,65.2,30.14,NE,54,0.0,0.0,74,0.00,CLR,OVC,0.00,WeatherDisplay:10.37,2013-05-10 02:21:00,
2013-05-09 22:26:00,73.7,64.9,30.14,NE,54,0.0,0.0,74,0.00,CLR,OVC,0.00,WeatherDisplay:10.37,2013-05-10 02:26:00,
2013-05-09 22:31:00,73.6,65.2,30.14,NE,54,0.0,0.0,75,0.00,CLR,OVC,0.00,WeatherDisplay:10.37,2013-05-10 02:31:00,
2013-05-09 22:36:00,73.4,65.0,30.14,NE,54,0.0,0.0,75,0.00,CLR,OVC,0.00,WeatherDisplay:10.37,2013-05-10 02:36:00,
2013-05-09 22:41:00,73.3,64.9,30.15,NE,54,0.0,0.0,75,0.00,CLR,OVC,0.00,WeatherDisplay:10.37,2013-05-10 02:41:00,
2013-05-09 22:46:00,73.2,65.2,30.15,NE,54,0.0,0.0,76,0.00,CLR,OVC,0.00,WeatherDisplay:10.37,2013-05-10 02:46:00,
2013-05-09 22:51:00,73.1,65.1,30.15,NE,54,0.0,0.0,76,0.00,CLR,OVC,0.00,WeatherDisplay:10.37,2013-05-10 02:51:00,
2013-05-09 22:56:00,72.9,64.9,30.15,NE,54,0.0,0.0,76,0.00,CLR,OVC,0.00,WeatherDisplay:10.37,2013-05-10 02:56:00,
2013-05-09 23:01:00,72.8,64.8,30.16,NE,54,0.0,0.0,76,0.00,CLR,OVC,0.00,WeatherDisplay:10.37,2013-05-10 03:01:00,
2013-05-09 23:06:00,72.7,65.1,30.16,NE,54,0.0,0.0,77,0.00,CLR,OVC,0.00,WeatherDisplay:10.37,2013-05-10 03:06:00,
2013-05-09 23:11:00,72.6,65.0,30.16,NE,54,0.0,0.0,77,0.00,CLR,OVC,0.00,WeatherDisplay:10.37,2013-05-10 03:11:00,
2013-05-09 23:16:00,72.3,64.7,30.16,NE,54,0.0,0.0,77,0.00,CLR,OVC,0.00,WeatherDisplay:10.37,2013-05-10 03:16:00,
2013-05-09 23:21:00,72.3,64.7,30.17,NE,54,0.0,0.0,77,0.00,CLR,OVC,0.00,WeatherDisplay:10.37,2013-05-10 03:21:00,
2013-05-09 23:26:00,72.0,64.4,30.17,NE,54,0.0,0.0,77,0.00,CLR,OVC,0.00,WeatherDisplay:10.37,2013-05-10 03:26:00,
2013-05-09 23:31:00,71.7,64.5,30.17,NE,54,0.0,0.0,78,0.00,CLR,OVC,0.00,WeatherDisplay:10.37,2013-05-10 03:31:00,
2013-05-09 23:36:00,71.5,64.3,30.17,NE,54,0.0,0.0,78,0.00,CLR,OVC,0.00,WeatherDisplay:10.37,2013-05-10 03:36:00,
2013-05-09 23:41:00,71.5,64.3,30.17,NE,54,0.0,0.0,78,0.00,CLR,OVC,0.00,WeatherDisplay:10.37,2013-05-10 03:41:00,
2013-05-09 23:46:00,71.3,64.4,30.17,NE,54,0.0,0.0,79,0.00,CLR,OVC,0.00,WeatherDisplay:10.37,2013-05-10 03:46:00,
2013-05-09 23:51:00,71.1,64.3,30.17,NE,54,0.0,0.0,79,0.00,CLR,OVC,0.00,WeatherDisplay:10.37,2013-05-10 03:51:00,
2013-05-09 23:56:00,71.1,65.0,30.17,NE,54,0.0,0.0,81,0.00,CLR,OVC,0.00,WeatherDisplay:10.37,2013-05-10 03:56:00,